Stevensville, MD

4:40 PM EST on December 16, 2017 (GMT -0500)
Stevensville

Weather History for KW29 - November, 2012

Change the Weather History Date:

Sunday, November 4, 2012

  Actual Average (KESN) Record (KESN)
Temperature  
Mean Temperature 44 °F -  
Max Temperature 48 °F 63 °F 82 °F (1974)
Min Temperature 41 °F 45 °F 26 °F (1951)
Degree Days  
Heating Degree Days 20    
Moisture  
Dew Point 31 °F    
Average Humidity 62    
Maximum Humidity 70    
Minimum Humidity 53    
Precipitation  
Precipitation 0.00 in - - ()
Sea Level Pressure  
Sea Level Pressure 30.05 in    
Wind  
Wind Speed 9 mph (NW)    
Max Wind Speed 13 mph    
Max Gust Speed 20 mph    
Visibility 10 miles    
Events      
Averages and records for this station are not official NWS values.
T = Trace of Precipitation, MM = Missing Value Source: NWS Daily Summary

Daily Weather History Graph

Daily Weather History Graph

Search for Another Location

Airport or City:

Trip Planner

Search our weather history database for the weather conditions in past years. The results will help you decide how hot, cold, wet, or windy it might be!

Date:

Astronomy

Nov. 04, 2012 Rise Set
Actual Time 6:36 AM EST 5:00 PM EST
Civil Twilight 6:08 AM EST 5:28 PM EST
Nautical Twilight 5:36 AM EST 6:00 PM EST
Astronomical Twilight 5:05 AM EST 6:31 PM EST
Moon 9:37 PM EST (11/4) 11:18 AM EST (11/4)
Length of Visible Light 11h 20m
Length of Day
10h 24m
Waning Gibbous, 72% of the Moon is Illuminated
Nov 4
Waning Gibbous
Nov 6
Last Quarter
Nov 13
New
Nov 20
First Quarter
Nov 28
Full

Hourly Weather History & Observations

Time (EST) Temp. Windchill Dew Point Humidity Pressure Visibility Wind Dir Wind Speed Gust Speed Precip Events Conditions
12:05 AM 44.6 °F 38.4 °F 30.2 °F 57% 30.06 in 10.0 mi NW 12.7 mph 19.6 mph N/A   Mostly Cloudy
12:26 AM 44.6 °F 40.2 °F 32.0 °F 61% 30.07 in 10.0 mi WNW 8.1 mph - N/A   Mostly Cloudy
12:47 AM 44.6 °F 39.2 °F 32.0 °F 61% 30.07 in 10.0 mi NW 10.4 mph - N/A   Mostly Cloudy
1:30 AM 44.6 °F 39.7 °F 32.0 °F 61% 30.08 in 10.0 mi WNW 9.2 mph - N/A   Overcast
1:51 AM 42.8 °F 37.0 °F 32.0 °F 66% 30.07 in 10.0 mi WNW 10.4 mph - N/A   Mostly Cloudy
1:13 AM 42.8 °F 37.0 °F 32.0 °F 66% 30.07 in 10.0 mi WNW 10.4 mph - N/A   Clear
1:34 AM 42.8 °F 37.0 °F 32.0 °F 66% 30.06 in 10.0 mi WNW 10.4 mph - N/A   Clear
1:55 AM 42.8 °F 37.0 °F 32.0 °F 66% 30.06 in 10.0 mi WNW 10.4 mph - N/A   Clear
2:16 AM 42.8 °F 37.0 °F 32.0 °F 66% 30.06 in 10.0 mi WNW 10.4 mph - N/A   Clear
2:38 AM 42.8 °F 38.6 °F 32.0 °F 66% 30.05 in 10.0 mi WNW 6.9 mph - N/A   Clear
2:59 AM 42.8 °F 37.5 °F 32.0 °F 66% 30.05 in 10.0 mi WNW 9.2 mph - N/A   Clear
3:20 AM 42.8 °F 37.0 °F 32.0 °F 66% 30.05 in 10.0 mi WNW 10.4 mph - N/A   Clear
3:42 AM 41.0 °F 34.7 °F 32.0 °F 70% 30.05 in 10.0 mi WNW 10.4 mph - N/A   Clear
4:03 AM 41.0 °F 34.7 °F 32.0 °F 70% 30.05 in 10.0 mi WNW 10.4 mph 16.1 mph N/A   Clear
4:24 AM 41.0 °F 34.7 °F 30.2 °F 65% 30.05 in 10.0 mi NW 10.4 mph - N/A   Clear
5:07 AM 41.0 °F 34.3 °F 30.2 °F 65% 30.06 in 10.0 mi WNW 11.5 mph 16.1 mph N/A   Clear
6:11 AM 41.0 °F 35.2 °F 32.0 °F 70% 30.06 in 10.0 mi WNW 9.2 mph - N/A   Clear
6:32 AM 41.0 °F 35.2 °F 30.2 °F 65% 30.07 in 10.0 mi WNW 9.2 mph - N/A   Clear
6:53 AM 41.0 °F 34.7 °F 30.2 °F 65% 30.07 in 10.0 mi WNW 10.4 mph - N/A   Clear
7:15 AM 41.0 °F 34.3 °F 32.0 °F 70% 30.08 in 10.0 mi WNW 11.5 mph - N/A   Scattered Clouds
7:36 AM 41.0 °F 35.8 °F 32.0 °F 70% 30.08 in 10.0 mi WNW 8.1 mph - N/A   Clear
7:57 AM 42.8 °F 37.5 °F 30.2 °F 61% 30.08 in 10.0 mi WNW 9.2 mph - N/A   Clear
8:18 AM 42.8 °F 37.5 °F 30.2 °F 61% 30.08 in 10.0 mi NW 9.2 mph - N/A   Scattered Clouds
8:39 AM 44.6 °F 40.2 °F 32.0 °F 61% 30.09 in 10.0 mi WNW 8.1 mph - N/A   Clear
9:01 AM 44.6 °F 38.4 °F 32.0 °F 61% 30.08 in 10.0 mi WNW 12.7 mph - N/A   Scattered Clouds
9:22 AM 44.6 °F 38.8 °F 30.2 °F 57% 30.08 in 10.0 mi WNW 11.5 mph - N/A   Mostly Cloudy
9:43 AM 44.6 °F 39.7 °F 30.2 °F 57% 30.08 in 10.0 mi NW 9.2 mph - N/A   Overcast
10:04 AM 44.6 °F 42.2 °F 30.2 °F 57% 30.08 in 10.0 mi WNW 4.6 mph - N/A   Mostly Cloudy
10:47 AM 44.6 °F 40.7 °F 30.2 °F 57% 30.07 in 10.0 mi NW 6.9 mph - N/A   Overcast
11:08 AM 46.4 °F 42.9 °F 32.0 °F 57% 30.06 in 10.0 mi NNW 6.9 mph - N/A   Overcast
11:29 AM 46.4 °F 42.9 °F 30.2 °F 53% 30.06 in 10.0 mi NNW 6.9 mph - N/A   Scattered Clouds
11:51 AM 46.4 °F 42.9 °F 32.0 °F 57% 30.05 in 10.0 mi NW 6.9 mph - N/A   Mostly Cloudy
12:12 PM 46.4 °F 41.9 °F 32.0 °F 57% 30.05 in 10.0 mi NW 9.2 mph - N/A   Mostly Cloudy
12:33 PM 46.4 °F 42.9 °F 32.0 °F 57% 30.04 in 10.0 mi NNW 6.9 mph - N/A   Mostly Cloudy
12:54 PM 46.4 °F 41.9 °F 30.2 °F 53% 30.03 in 10.0 mi NNW 9.2 mph - N/A   Mostly Cloudy
1:15 PM 46.4 °F 41.9 °F 32.0 °F 57% 30.02 in 10.0 mi NNW 9.2 mph - N/A   Mostly Cloudy
1:37 PM 46.4 °F 41.9 °F 32.0 °F 57% 30.02 in 10.0 mi NNW 9.2 mph - N/A   Scattered Clouds
1:58 PM 48.2 °F - 32.0 °F 54% 30.02 in 10.0 mi North 11.5 mph - N/A   Clear
3:02 PM 46.4 °F 41.9 °F 32.0 °F 57% 30.01 in 10.0 mi North 9.2 mph - N/A   Clear
3:23 PM 46.4 °F 43.5 °F 32.0 °F 57% 30.01 in 10.0 mi North 5.8 mph - N/A   Clear
4:05 PM 46.4 °F 45.2 °F 32.0 °F 57% 30.01 in 10.0 mi North 3.5 mph - N/A   Clear
4:26 PM 46.4 °F 44.3 °F 32.0 °F 57% 30.01 in 10.0 mi North 4.6 mph - N/A   Clear
4:48 PM 44.6 °F - 32.0 °F 61% 30.02 in 10.0 mi Calm Calm - N/A   Clear
5:09 PM 44.6 °F 43.1 °F 32.0 °F 61% 30.02 in 10.0 mi NNE 3.5 mph - N/A   Clear
5:30 PM 44.6 °F 43.1 °F 32.0 °F 61% 30.02 in 10.0 mi NNE 3.5 mph - N/A   Clear
5:51 PM 44.6 °F 40.7 °F 32.0 °F 61% 30.03 in 10.0 mi North 6.9 mph - N/A   Clear
6:13 PM 42.8 °F 40.1 °F 32.0 °F 66% 30.04 in 10.0 mi NNE 4.6 mph - N/A   Clear
6:34 PM 42.8 °F 40.1 °F 32.0 °F 66% 30.04 in 10.0 mi NNE 4.6 mph - N/A   Clear
6:55 PM 42.8 °F 38.6 °F 32.0 °F 66% 30.05 in 10.0 mi NNE 6.9 mph - N/A   Clear
7:16 PM 42.8 °F 38.6 °F 32.0 °F 66% 30.05 in 10.0 mi North 6.9 mph - N/A   Clear
7:38 PM 42.8 °F 38.0 °F 30.2 °F 61% 30.05 in 10.0 mi North 8.1 mph - N/A   Clear
7:59 PM 42.8 °F 38.6 °F 30.2 °F 61% 30.06 in 10.0 mi North 6.9 mph - N/A   Clear
8:20 PM 42.8 °F 37.0 °F 30.2 °F 61% 30.06 in 10.0 mi North 10.4 mph - N/A   Clear
8:42 PM 42.8 °F 36.6 °F 30.2 °F 61% 30.05 in 10.0 mi NNW 11.5 mph - N/A   Clear
9:03 PM 42.8 °F 37.0 °F 30.2 °F 61% 30.05 in 10.0 mi NNW 10.4 mph - N/A   Clear
9:24 PM 42.8 °F 37.5 °F 30.2 °F 61% 30.06 in 10.0 mi NNW 9.2 mph - N/A   Clear
9:45 PM 42.8 °F 37.0 °F 30.2 °F 61% 30.06 in 10.0 mi NNW 10.4 mph 16.1 mph N/A   Clear
10:07 PM 42.8 °F 38.0 °F 30.2 °F 61% 30.06 in 10.0 mi NNW 8.1 mph - N/A   Clear
10:28 PM 41.0 °F 37.1 °F 30.2 °F 65% 30.05 in 10.0 mi North 5.8 mph - N/A   Clear
10:49 PM 41.0 °F 36.4 °F 30.2 °F 65% 30.05 in 10.0 mi North 6.9 mph - N/A   Clear